• în Republica Moldova
  • Lista ţărilor
  • Pe 7 zile
  • Temperatura apei
  • Hartă satelitară
  • Meteo pe hartă
  • Widget-uri
  • user-avatar
    Intrare

    Meteo pe oră la Djelfa

    Astăzi, 25 Aprilie, Miercuri

    Timp Temperatura Precipitaţii Vânt Presiune Umiditate
    00:00 +19°C° 0,3 mm 4 m/s 663 mmHg 52%
    01:00 +19°C° 0,4 mm 4 m/s 663 mmHg 53%
    02:00 +19°C° 0,4 mm 3 m/s 663 mmHg 55%
    03:00 +18°C° 0,4 mm 3 m/s 662 mmHg 56%
    04:00 +18°C° 0,3 mm 4 m/s 662 mmHg 56%
    05:00 +17°C° 0,3 mm 6 m/s 662 mmHg 56%
    06:00 +17°C° 0,3 mm 7 m/s 662 mmHg 56%
    07:00 +18°C° 0,2 mm 8 m/s 663 mmHg 50%
    08:00 +21°C° 0,2 mm 10 m/s 663 mmHg 44%
    09:00 +22°C° 0,2 mm 11 m/s 664 mmHg 37%
    10:00 +22°C° 0,6 mm 10 m/s 663 mmHg 38%
    11:00 +22°C° 0,6 mm 10 m/s 663 mmHg 39%
    12:00 +22°C° 0,6 mm 9 m/s 663 mmHg 41%
    13:00 +21°C° 2,1 mm 7 m/s 662 mmHg 47%
    14:00 +19°C° 2,1 mm 6 m/s 662 mmHg 54%
    15:00 +18°C° 2,1 mm 4 m/s 661 mmHg 61%
    16:00 +17°C° 0,9 mm 5 m/s 661 mmHg 64%
    17:00 +16°C° 0,9 mm 6 m/s 660 mmHg 66%
    18:00 +16°C° 0,9 mm 7 m/s 660 mmHg 68%
    19:00 +15°C° 1,2 mm 7 m/s 660 mmHg 72%
    20:00 +14°C° 1,2 mm 7 m/s 660 mmHg 75%
    21:00 +12°C° 1,2 mm 8 m/s 660 mmHg 78%
    22:00 +12°C° 1,1 mm 7 m/s 660 mmHg 80%
    23:00 +11°C° 1,1 mm 6 m/s 660 mmHg 81%

    Mâine, 26 Aprilie, Joi

    Timp Temperatura Precipitaţii Vânt Presiune Umiditate
    00:00 +11°C° 1,1 mm 6 m/s 659 mmHg 82%
    01:00 +11°C° 0,3 mm 6 m/s 659 mmHg 84%
    02:00 +11°C° 0,3 mm 6 m/s 659 mmHg 86%
    03:00 +11°C° 0,3 mm 6 m/s 658 mmHg 88%
    04:00 +11°C° 0,1 mm 6 m/s 659 mmHg 87%
    05:00 +11°C° 0,1 mm 6 m/s 659 mmHg 86%
    06:00 +11°C° 0,1 mm 6 m/s 659 mmHg 86%
    07:00 +11°C° 0 mm 6 m/s 659 mmHg 82%
    08:00 +12°C° 0 mm 7 m/s 659 mmHg 78%
    09:00 +13°C° 0 mm 8 m/s 660 mmHg 74%
    10:00 +13°C° 0 mm 8 m/s 660 mmHg 71%
    11:00 +15°C° 0 mm 9 m/s 660 mmHg 68%
    12:00 +15°C° 0 mm 9 m/s 660 mmHg 64%
    13:00 +16°C° 0 mm 9 m/s 660 mmHg 63%
    14:00 +16°C° 0 mm 9 m/s 659 mmHg 62%
    15:00 +16°C° 0 mm 8 m/s 659 mmHg 61%
    16:00 +15°C° 0,1 mm 8 m/s 659 mmHg 66%
    17:00 +13°C° 0,1 mm 8 m/s 659 mmHg 70%
    18:00 +13°C° 0,1 mm 8 m/s 659 mmHg 74%
    19:00 +12°C° 0,1 mm 8 m/s 660 mmHg 76%
    20:00 +12°C° 0,1 mm 8 m/s 660 mmHg 77%
    21:00 +11°C° 0,1 mm 9 m/s 660 mmHg 79%
    22:00 +11°C° 0,1 mm 9 m/s 660 mmHg 79%
    23:00 +11°C° 0,1 mm 10 m/s 660 mmHg 79%

    Poimâine, 27 Aprilie, Vineri

    Timp Temperatura Precipitaţii Vânt Presiune Umiditate
    00:00 +9°C° 0,1 mm 10 m/s 660 mmHg 80%
    01:00 +9°C° 0,1 mm 10 m/s 659 mmHg 80%
    02:00 +9°C° 0,1 mm 11 m/s 659 mmHg 81%
    03:00 +8°C° 0,1 mm 11 m/s 659 mmHg 82%
    04:00 +8°C° 0,1 mm 11 m/s 659 mmHg 82%
    05:00 +8°C° 0,1 mm 11 m/s 659 mmHg 83%
    06:00 +8°C° 0,1 mm 11 m/s 659 mmHg 83%
    07:00 +9°C° 0 mm 11 m/s 660 mmHg 77%
    08:00 +9°C° 0 mm 11 m/s 660 mmHg 72%
    09:00 +11°C° 0 mm 11 m/s 661 mmHg 66%
    10:00 +12°C° 0 mm 10 m/s 661 mmHg 61%
    11:00 +14°C° 0 mm 10 m/s 661 mmHg 57%
    12:00 +16°C° 0 mm 10 m/s 661 mmHg 53%
    13:00 +16°C° 0 mm 10 m/s 661 mmHg 51%
    14:00 +16°C° 0 mm 10 m/s 661 mmHg 50%
    15:00 +17°C° 0 mm 10 m/s 661 mmHg 49%
    16:00 +16°C° 0 mm 9 m/s 661 mmHg 52%
    17:00 +15°C° 0 mm 9 m/s 661 mmHg 54%
    18:00 +15°C° 0 mm 8 m/s 662 mmHg 56%
    19:00 +14°C° 0 mm 7 m/s 662 mmHg 61%
    20:00 +13°C° 0 mm 6 m/s 662 mmHg 65%
    21:00 +12°C° 0 mm 5 m/s 663 mmHg 69%
    22:00 +12°C° 0 mm 4 m/s 663 mmHg 71%
    23:00 +11°C° 0 mm 3 m/s 662 mmHg 74%

    28 Aprilie, Sâmbătă

    Timp Temperatura Precipitaţii Vânt Presiune Umiditate
    00:00 +11°C° 0 mm 3 m/s 662 mmHg 77%
    01:00 +11°C° 0 mm 3 m/s 662 mmHg 77%
    02:00 +10°C° 0 mm 3 m/s 661 mmHg 78%
    03:00 +10°C° 0 mm 3 m/s 661 mmHg 79%
    04:00 +10°C° 0 mm 3 m/s 661 mmHg 77%
    05:00 +10°C° 0 mm 3 m/s 661 mmHg 75%
    06:00 +11°C° 0 mm 3 m/s 661 mmHg 74%
    07:00 +12°C° 0 mm 3 m/s 662 mmHg 64%
    08:00 +14°C° 0 mm 3 m/s 663 mmHg 55%
    09:00 +17°C° 0 mm 3 m/s 663 mmHg 45%
    10:00 +18°C° 0 mm 2 m/s 663 mmHg 40%
    11:00 +19°C° 0 mm 2 m/s 664 mmHg 36%
    12:00 +21°C° 0 mm 1 m/s 664 mmHg 31%
    13:00 +22°C° 0 mm 1 m/s 663 mmHg 29%
    14:00 +23°C° 0 mm 1 m/s 663 mmHg 26%
    15:00 +23°C° 0 mm 2 m/s 663 mmHg 24%
    16:00 +23°C° 0 mm 2 m/s 663 mmHg 25%
    17:00 +23°C° 0 mm 2 m/s 663 mmHg 26%
    18:00 +23°C° 0 mm 2 m/s 663 mmHg 27%
    19:00 +21°C° 0 mm 2 m/s 663 mmHg 29%
    20:00 +20°C° 0 mm 2 m/s 663 mmHg 31%
    21:00 +19°C° 0 mm 3 m/s 663 mmHg 33%
    22:00 +19°C° 0 mm 3 m/s 663 mmHg 35%
    23:00 +18°C° 0 mm 4 m/s 663 mmHg 37%

    29 Aprilie, Duminică

    Timp Temperatura Precipitaţii Vânt Presiune Umiditate
    00:00 +16°C° 0 mm 5 m/s 662 mmHg 38%
    01:00 +17°C° 0,1 mm 4 m/s 663 mmHg 44%
    02:00 +15°C° 0,1 mm 4 m/s 663 mmHg 49%
    03:00 +15°C° 0,1 mm 4 m/s 663 mmHg 55%
    04:00 +13°C° 0,4 mm 5 m/s 663 mmHg 63%
    05:00 +11°C° 0,4 mm 6 m/s 663 mmHg 71%
    06:00 +10°C° 0,4 mm 7 m/s 663 mmHg 80%
    07:00 +11°C° 0,5 mm 6 m/s 664 mmHg 72%
    08:00 +13°C° 0,5 mm 5 m/s 664 mmHg 65%
    09:00 +13°C° 0,5 mm 4 m/s 665 mmHg 58%
    10:00 +16°C° 0,1 mm 3 m/s 665 mmHg 52%
    11:00 +17°C° 0,1 mm 3 m/s 665 mmHg 47%
    12:00 +18°C° 0,1 mm 2 m/s 665 mmHg 41%
    13:00 +19°C° 0 mm 2 m/s 665 mmHg 39%
    14:00 +20°C° 0 mm 2 m/s 664 mmHg 38%
    15:00 +21°C° 0 mm 2 m/s 664 mmHg 36%
    16:00 +21°C° 0 mm 3 m/s 664 mmHg 37%
    17:00 +21°C° 0 mm 3 m/s 664 mmHg 37%
    18:00 +21°C° 0 mm 3 m/s 664 mmHg 38%
    19:00 +20°C° 0 mm 3 m/s 664 mmHg 42%
    20:00 +19°C° 0 mm 3 m/s 664 mmHg 46%
    21:00 +18°C° 0 mm 3 m/s 665 mmHg 50%
    22:00 +17°C° 0 mm 3 m/s 664 mmHg 53%
    23:00 +16°C° 0 mm 2 m/s 664 mmHg 57%

    30 Aprilie, Luni

    Timp Temperatura Precipitaţii Vânt Presiune Umiditate
    00:00 +15°C° 0 mm 2 m/s 664 mmHg 61%
    01:00 +15°C° 0 mm 2 m/s 663 mmHg 63%
    02:00 +14°C° 0 mm 2 m/s 663 mmHg 66%
    03:00 +14°C° 0 mm 2 m/s 663 mmHg 68%
    04:00 +14°C° 0,1 mm 2 m/s 663 mmHg 70%
    05:00 +13°C° 0,1 mm 3 m/s 663 mmHg 71%
    06:00 +12°C° 0,1 mm 3 m/s 664 mmHg 73%
    07:00 +14°C° 0 mm 3 m/s 664 mmHg 67%
    08:00 +16°C° 0 mm 3 m/s 664 mmHg 61%
    09:00 +17°C° 0 mm 4 m/s 665 mmHg 55%
    10:00 +18°C° 0 mm 4 m/s 665 mmHg 50%
    11:00 +19°C° 0 mm 4 m/s 664 mmHg 45%
    12:00 +21°C° 0 mm 5 m/s 664 mmHg 40%
    13:00 +21°C° 0,1 mm 5 m/s 664 mmHg 40%
    14:00 +21°C° 0,1 mm 6 m/s 663 mmHg 39%
    15:00 +22°C° 0,1 mm 6 m/s 662 mmHg 39%
    16:00 +20°C° 0,1 mm 7 m/s 662 mmHg 46%
    17:00 +18°C° 0,1 mm 8 m/s 662 mmHg 52%
    18:00 +16°C° 0,1 mm 8 m/s 662 mmHg 58%
    19:00 +15°C° 0,1 mm 8 m/s 662 mmHg 64%
    20:00 +13°C° 0,1 mm 8 m/s 662 mmHg 71%
    21:00 +11°C° 0,1 mm 8 m/s 662 mmHg 77%
    22:00 +11°C° 0,5 mm 8 m/s 662 mmHg 79%
    23:00 +10°C° 0,5 mm 7 m/s 662 mmHg 81%
    Arată mai mult